CLUSTER II-FM5 (RUMBA) (26463 NORAD) Tracking and Keplerian Element Data

This shows tracking and keplerian element data for the satellite.

Feedback or suggestion? Click here.




ElementValue
Catalog26463
NameCLUSTER II-FM5 (RUMBA)
Epoch Orbit3035
Epoch Day27.96814671
Epoch Year2025
RAAN49.7247
Inclination153.718
Eccentricity0.8949202
Argument of Perigee266.8171
Mean Anonmoly359.8501
Mean Motion0.42902652
Decay Rate0.00024969
L11 26463U 00045A 25027.96814671 .00024969 00000+0 00000+0 0 9996
L22 26463 153.7180 49.7247 8949202 266.8171 359.8501 0.42902652 30358



Live tracking and technical data element details for CLUSTER II-FM5 (RUMBA) (NORAD 26463). CLUSTER II-FM5 (RUMBA) can be tracked NOW for your location showing map with azimuth and elevation plus other details from your city location.







IsCatalogInMostPopularTable: catalog: 26463, numindb: 458
Update: records affected: 1



GetName: 26463 CLUSTER II-FM5 (RUMBA)

Hit Count: updated at: Thu, 15 May 2025 09:14:11 GMT